Year,Month,Day,Hour,Minute,Value (Times are PST for insolation in W/m^2)
2015,12,20,00,00,0.00
2015,12,20,00,01,0.00
2015,12,20,00,02,0.00
2015,12,20,00,03,0.00
2015,12,20,00,04,0.00
2015,12,20,00,05,0.00
2015,12,20,00,06,0.00
2015,12,20,00,07,0.00
2015,12,20,00,08,0.00
2015,12,20,00,09,0.00
2015,12,20,00,10,0.00
2015,12,20,00,11,0.00
2015,12,20,00,12,0.00
2015,12,20,00,13,0.00
2015,12,20,00,14,0.00
2015,12,20,00,15,0.00
2015,12,20,00,16,0.00
2015,12,20,00,17,0.00
2015,12,20,00,18,0.00
2015,12,20,00,19,0.00
2015,12,20,00,20,0.00
2015,12,20,00,21,0.00
2015,12,20,00,22,0.00
2015,12,20,00,23,0.00
2015,12,20,00,24,0.00
2015,12,20,00,25,0.00
2015,12,20,00,26,0.00
2015,12,20,00,27,0.00
2015,12,20,00,28,0.00
2015,12,20,00,29,0.00
2015,12,20,00,30,0.00
2015,12,20,00,31,0.00
2015,12,20,00,32,0.00
2015,12,20,00,33,0.00
2015,12,20,00,34,0.00
2015,12,20,00,35,0.00
2015,12,20,00,36,0.00
2015,12,20,00,37,0.00
2015,12,20,00,38,0.00
2015,12,20,00,39,0.00
2015,12,20,00,40,0.00
2015,12,20,00,41,0.00
2015,12,20,00,42,0.00
2015,12,20,00,43,0.00
2015,12,20,00,44,0.00
2015,12,20,00,45,0.00
2015,12,20,00,46,0.00
2015,12,20,00,47,0.00
2015,12,20,00,48,0.00
2015,12,20,00,49,0.00
2015,12,20,00,50,0.00
2015,12,20,00,51,0.00
2015,12,20,00,52,0.00
2015,12,20,00,53,0.00
2015,12,20,00,54,0.00
2015,12,20,00,55,0.00
2015,12,20,00,56,0.00
2015,12,20,00,57,0.00
2015,12,20,00,58,0.00
2015,12,20,00,59,0.00
2015,12,20,01,00,0.00
2015,12,20,01,01,0.00
2015,12,20,01,02,0.00
2015,12,20,01,03,0.00
2015,12,20,01,04,0.00
2015,12,20,01,05,0.00
2015,12,20,01,06,0.00
2015,12,20,01,07,0.00
2015,12,20,01,08,0.00
2015,12,20,01,09,0.00
2015,12,20,01,10,0.00
2015,12,20,01,11,0.00
2015,12,20,01,12,0.00
2015,12,20,01,13,0.00
2015,12,20,01,14,0.00
2015,12,20,01,15,0.00
2015,12,20,01,16,0.00
2015,12,20,01,17,0.00
2015,12,20,01,18,0.00
2015,12,20,01,19,0.00
2015,12,20,01,20,0.00
2015,12,20,01,21,0.00
2015,12,20,01,22,0.00
2015,12,20,01,23,0.00
2015,12,20,01,24,0.00
2015,12,20,01,25,0.00
2015,12,20,01,26,0.00
2015,12,20,01,27,0.00
2015,12,20,01,28,0.00
2015,12,20,01,29,0.00
2015,12,20,01,30,0.00
2015,12,20,01,31,0.00
2015,12,20,01,32,0.00
2015,12,20,01,33,0.00
2015,12,20,01,34,0.00
2015,12,20,01,35,0.00
2015,12,20,01,36,0.00
2015,12,20,01,37,0.00
2015,12,20,01,38,0.00
2015,12,20,01,39,0.00
2015,12,20,01,40,0.00
2015,12,20,01,41,0.00
2015,12,20,01,42,0.00
2015,12,20,01,43,0.00
2015,12,20,01,44,0.00
2015,12,20,01,45,0.00
2015,12,20,01,46,0.00
2015,12,20,01,47,0.00
2015,12,20,01,48,0.00
2015,12,20,01,49,0.00
2015,12,20,01,50,0.00
2015,12,20,01,51,0.00
2015,12,20,01,52,0.00
2015,12,20,01,53,0.00
2015,12,20,01,54,0.00
2015,12,20,01,55,0.00
2015,12,20,01,56,0.00
2015,12,20,01,57,0.00
2015,12,20,01,58,0.00
2015,12,20,01,59,0.00
2015,12,20,02,00,0.00
2015,12,20,02,01,0.00
2015,12,20,02,02,0.00
2015,12,20,02,03,0.00
2015,12,20,02,04,0.00
2015,12,20,02,05,0.00
2015,12,20,02,06,0.00
2015,12,20,02,07,0.00
2015,12,20,02,08,0.00
2015,12,20,02,09,0.00
2015,12,20,02,10,0.00
2015,12,20,02,11,0.00
2015,12,20,02,12,0.00
2015,12,20,02,13,0.00
2015,12,20,02,14,0.00
2015,12,20,02,15,0.00
2015,12,20,02,16,0.00
2015,12,20,02,17,0.00
2015,12,20,02,18,0.00
2015,12,20,02,19,0.00
2015,12,20,02,20,0.00
2015,12,20,02,21,0.00
2015,12,20,02,22,0.00
2015,12,20,02,23,0.00
2015,12,20,02,24,0.00
2015,12,20,02,25,0.00
2015,12,20,02,26,0.00
2015,12,20,02,27,0.00
2015,12,20,02,28,0.00
2015,12,20,02,29,0.00
2015,12,20,02,30,0.00
2015,12,20,02,31,0.00
2015,12,20,02,32,0.00
2015,12,20,02,33,0.00
2015,12,20,02,34,0.00
2015,12,20,02,35,0.00
2015,12,20,02,36,0.00
2015,12,20,02,37,0.00
2015,12,20,02,38,0.00
2015,12,20,02,39,0.00
2015,12,20,02,40,0.00
2015,12,20,02,41,0.00
2015,12,20,02,42,0.00
2015,12,20,02,43,0.00
2015,12,20,02,44,0.00
2015,12,20,02,45,0.00
2015,12,20,02,46,0.00
2015,12,20,02,47,0.00
2015,12,20,02,48,0.00
2015,12,20,02,49,0.00
2015,12,20,02,50,0.00
2015,12,20,02,51,0.00
2015,12,20,02,52,0.00
2015,12,20,02,53,0.00
2015,12,20,02,54,0.00
2015,12,20,02,55,0.00
2015,12,20,02,56,0.00
2015,12,20,02,57,0.00
2015,12,20,02,58,0.00
2015,12,20,02,59,0.00
2015,12,20,03,00,0.00
2015,12,20,03,01,0.00
2015,12,20,03,02,0.00
2015,12,20,03,06,0.00
2015,12,20,03,07,0.00
2015,12,20,03,08,0.00
2015,12,20,03,09,0.00
2015,12,20,03,10,0.00
2015,12,20,03,11,0.00
2015,12,20,03,12,0.00
2015,12,20,03,13,0.00
2015,12,20,03,14,0.00
2015,12,20,03,15,0.00
2015,12,20,03,16,0.00
2015,12,20,03,17,0.00
2015,12,20,03,18,0.00
2015,12,20,03,19,0.00
2015,12,20,03,20,0.00
2015,12,20,03,21,0.00
2015,12,20,03,22,0.00
2015,12,20,03,23,0.00
2015,12,20,03,24,0.00
2015,12,20,03,25,0.00
2015,12,20,03,26,0.00
2015,12,20,03,27,0.00
2015,12,20,03,28,0.00
2015,12,20,03,29,0.00
2015,12,20,03,30,0.00
2015,12,20,03,31,0.00
2015,12,20,03,32,0.00
2015,12,20,03,33,0.00
2015,12,20,03,34,0.00
2015,12,20,03,35,0.00
2015,12,20,03,36,0.00
2015,12,20,03,37,0.00
2015,12,20,03,38,0.00
2015,12,20,03,39,0.00
2015,12,20,03,40,0.00
2015,12,20,03,41,0.00
2015,12,20,03,42,0.00
2015,12,20,03,43,0.00
2015,12,20,03,44,0.00
2015,12,20,03,45,0.00
2015,12,20,03,46,0.00
2015,12,20,03,47,0.00
2015,12,20,03,48,0.00
2015,12,20,03,49,0.00
2015,12,20,03,50,0.00
2015,12,20,03,51,0.00
2015,12,20,03,52,0.00
2015,12,20,03,53,0.00
2015,12,20,03,54,0.00
2015,12,20,03,55,0.00
2015,12,20,03,56,0.00
2015,12,20,03,57,0.00
2015,12,20,03,58,0.00
2015,12,20,03,59,0.00
2015,12,20,04,00,0.00
2015,12,20,04,01,0.00
2015,12,20,04,02,0.00
2015,12,20,04,03,0.00
2015,12,20,04,04,0.00
2015,12,20,04,05,0.00
2015,12,20,04,06,0.00
2015,12,20,04,07,0.00
2015,12,20,04,08,0.00
2015,12,20,04,09,0.00
2015,12,20,04,10,0.00
2015,12,20,04,11,0.00
2015,12,20,04,12,0.00
2015,12,20,04,13,0.00
2015,12,20,04,14,0.00
2015,12,20,04,15,0.00
2015,12,20,04,16,0.00
2015,12,20,04,17,0.00
2015,12,20,04,18,0.00
2015,12,20,04,19,0.00
2015,12,20,04,20,0.00
2015,12,20,04,21,0.00
2015,12,20,04,22,0.00
2015,12,20,04,23,0.00
2015,12,20,04,24,0.00
2015,12,20,04,25,0.00
2015,12,20,04,26,0.00
2015,12,20,04,27,0.00
2015,12,20,04,28,0.00
2015,12,20,04,29,0.00
2015,12,20,04,30,0.00
2015,12,20,04,31,0.00
2015,12,20,04,32,0.00
2015,12,20,04,33,0.00
2015,12,20,04,34,0.00
2015,12,20,04,35,0.00
2015,12,20,04,36,0.00
2015,12,20,04,37,0.00
2015,12,20,04,38,0.00
2015,12,20,04,39,0.00
2015,12,20,04,40,0.00
2015,12,20,04,41,0.00
2015,12,20,04,42,0.00
2015,12,20,04,43,0.00
2015,12,20,04,44,0.00
2015,12,20,04,45,0.00
2015,12,20,04,46,0.00
2015,12,20,04,47,0.00
2015,12,20,04,48,0.00
2015,12,20,04,49,0.00
2015,12,20,04,50,0.00
2015,12,20,04,51,0.00
2015,12,20,04,52,0.00
2015,12,20,04,53,0.00
2015,12,20,04,54,0.00
2015,12,20,04,55,0.00
2015,12,20,04,56,0.00
2015,12,20,04,57,0.00
2015,12,20,04,58,0.00
2015,12,20,04,59,0.00
2015,12,20,05,00,0.00
2015,12,20,05,01,0.00
2015,12,20,05,02,0.00
2015,12,20,05,03,0.00
2015,12,20,05,04,0.00
2015,12,20,05,05,0.00
2015,12,20,05,06,0.00
2015,12,20,05,07,0.00
2015,12,20,05,08,0.00
2015,12,20,05,09,0.00
2015,12,20,05,10,0.00
2015,12,20,05,11,0.00
2015,12,20,05,12,0.00
2015,12,20,05,13,0.00
2015,12,20,05,14,0.00
2015,12,20,05,15,0.00
2015,12,20,05,16,0.00
2015,12,20,05,17,0.00
2015,12,20,05,18,0.00
2015,12,20,05,19,0.00
2015,12,20,05,20,0.00
2015,12,20,05,21,0.00
2015,12,20,05,22,0.00
2015,12,20,05,23,0.00
2015,12,20,05,24,0.00
2015,12,20,05,25,0.00
2015,12,20,05,26,0.00
2015,12,20,05,27,0.00
2015,12,20,05,28,0.00
2015,12,20,05,29,0.00
2015,12,20,05,30,0.00
2015,12,20,05,31,0.00
2015,12,20,05,32,0.00
2015,12,20,05,33,0.00
2015,12,20,05,34,0.00
2015,12,20,05,35,0.00
2015,12,20,05,36,0.00
2015,12,20,05,37,0.00
2015,12,20,05,38,0.00
2015,12,20,05,39,0.00
2015,12,20,05,40,0.00
2015,12,20,05,41,0.00
2015,12,20,05,42,0.00
2015,12,20,05,43,0.00
2015,12,20,05,44,0.00
2015,12,20,05,45,0.00
2015,12,20,05,46,0.00
2015,12,20,05,47,0.00
2015,12,20,05,48,0.00
2015,12,20,05,49,0.00
2015,12,20,05,50,0.00
2015,12,20,05,51,0.00
2015,12,20,05,52,0.00
2015,12,20,05,53,0.00
2015,12,20,05,54,0.00
2015,12,20,05,55,0.00
2015,12,20,05,56,0.00
2015,12,20,05,57,0.00
2015,12,20,05,58,0.00
2015,12,20,05,59,0.00
2015,12,20,06,00,0.00
2015,12,20,06,01,0.00
2015,12,20,06,02,0.00
2015,12,20,06,03,0.00
2015,12,20,06,04,0.00
2015,12,20,06,05,0.00
2015,12,20,06,06,0.00
2015,12,20,06,07,0.00
2015,12,20,06,08,0.00
2015,12,20,06,09,0.00
2015,12,20,06,10,0.00
2015,12,20,06,11,0.00
2015,12,20,06,12,0.00
2015,12,20,06,13,0.00
2015,12,20,06,14,0.00
2015,12,20,06,15,0.00
2015,12,20,06,16,0.00
2015,12,20,06,17,0.00
2015,12,20,06,18,0.00
2015,12,20,06,19,0.00
2015,12,20,06,20,0.00
2015,12,20,06,21,0.00
2015,12,20,06,22,0.00
2015,12,20,06,23,0.00
2015,12,20,06,24,0.00
2015,12,20,06,25,0.00
2015,12,20,06,26,0.00
2015,12,20,06,27,0.00
2015,12,20,06,28,0.00
2015,12,20,06,29,0.00
2015,12,20,06,30,0.00
2015,12,20,06,31,0.00
2015,12,20,06,32,0.00
2015,12,20,06,33,0.00
2015,12,20,06,34,0.00
2015,12,20,06,35,0.00
2015,12,20,06,36,0.00
2015,12,20,06,37,0.00
2015,12,20,06,38,0.00
2015,12,20,06,39,0.00
2015,12,20,06,40,0.00
2015,12,20,06,41,0.00
2015,12,20,06,42,0.00
2015,12,20,06,43,0.00
2015,12,20,06,44,0.00
2015,12,20,06,45,0.00
2015,12,20,06,46,0.00
2015,12,20,06,47,0.00
2015,12,20,06,48,0.00
2015,12,20,06,49,0.00
2015,12,20,06,50,0.00
2015,12,20,06,51,0.00
2015,12,20,06,52,0.00
2015,12,20,06,53,0.00
2015,12,20,06,54,0.00
2015,12,20,06,55,0.00
2015,12,20,06,56,0.00
2015,12,20,06,57,0.00
2015,12,20,06,58,0.00
2015,12,20,06,59,0.00
2015,12,20,07,00,0.00
2015,12,20,07,01,0.00
2015,12,20,07,02,0.00
2015,12,20,07,03,0.00
2015,12,20,07,04,0.00
2015,12,20,07,05,0.00
2015,12,20,07,06,0.00
2015,12,20,07,07,0.00
2015,12,20,07,08,0.00
2015,12,20,07,09,0.00
2015,12,20,07,10,0.00
2015,12,20,07,11,0.00
2015,12,20,07,12,0.00
2015,12,20,07,13,0.00
2015,12,20,07,14,0.00
2015,12,20,07,15,0.00
2015,12,20,07,16,0.00
2015,12,20,07,17,0.00
2015,12,20,07,18,0.00
2015,12,20,07,19,0.00
2015,12,20,07,20,0.00
2015,12,20,07,21,0.00
2015,12,20,07,22,0.00
2015,12,20,07,23,0.00
2015,12,20,07,24,0.00
2015,12,20,07,25,0.00
2015,12,20,07,26,0.00
2015,12,20,07,27,0.00
2015,12,20,07,28,0.00
2015,12,20,07,29,0.00
2015,12,20,07,30,0.00
2015,12,20,07,31,0.00
2015,12,20,07,32,0.00
2015,12,20,07,33,0.00
2015,12,20,07,34,0.00
2015,12,20,07,35,0.00
2015,12,20,07,36,0.00
2015,12,20,07,37,0.00
2015,12,20,07,38,0.00
2015,12,20,07,39,0.00
2015,12,20,07,40,0.00
2015,12,20,07,41,0.00
2015,12,20,07,42,0.00
2015,12,20,07,43,0.00
2015,12,20,07,44,0.00
2015,12,20,07,45,0.00
2015,12,20,07,46,0.00
2015,12,20,07,47,0.00
2015,12,20,07,48,0.00
2015,12,20,07,49,0.00
2015,12,20,07,50,0.00
2015,12,20,07,51,0.00
2015,12,20,07,52,0.00
2015,12,20,07,53,0.00
2015,12,20,07,54,0.00
2015,12,20,07,55,0.00
2015,12,20,07,56,0.00
2015,12,20,07,57,0.00
2015,12,20,07,58,0.00
2015,12,20,07,59,0.00
2015,12,20,08,00,0.00
2015,12,20,08,01,0.00
2015,12,20,08,02,0.00
2015,12,20,08,03,0.00
2015,12,20,08,04,0.00
2015,12,20,08,05,0.00
2015,12,20,08,06,0.00
2015,12,20,08,07,0.00
2015,12,20,08,08,0.00
2015,12,20,08,09,0.00
2015,12,20,08,10,0.00
2015,12,20,08,11,0.00
2015,12,20,08,12,0.00
2015,12,20,08,13,0.00
2015,12,20,08,14,5.00
2015,12,20,08,15,5.00
2015,12,20,08,16,5.00
2015,12,20,08,17,5.00
2015,12,20,08,18,5.00
2015,12,20,08,19,5.80
2015,12,20,08,20,7.00
2015,12,20,08,21,7.00
2015,12,20,08,22,7.00
2015,12,20,08,23,7.00
2015,12,20,08,24,8.40
2015,12,20,08,25,9.00
2015,12,20,08,26,9.00
2015,12,20,08,27,10.70
2015,12,20,08,28,11.00
2015,12,20,08,29,11.00
2015,12,20,08,30,11.10
2015,12,20,08,31,12.00
2015,12,20,08,32,12.50
2015,12,20,08,33,14.00
2015,12,20,08,34,14.00
2015,12,20,08,35,14.90
2015,12,20,08,36,16.00
2015,12,20,08,37,17.10
2015,12,20,08,38,18.00
2015,12,20,08,39,18.70
2015,12,20,08,40,19.00
2015,12,20,08,41,20.60
2015,12,20,08,42,22.70
2015,12,20,08,43,23.00
2015,12,20,08,44,23.00
2015,12,20,08,45,23.20
2015,12,20,08,46,24.60
2015,12,20,08,47,23.00
2015,12,20,08,48,23.00
2015,12,20,08,49,23.00
2015,12,20,08,50,23.00
2015,12,20,08,51,23.00
2015,12,20,08,52,24.20
2015,12,20,08,53,25.60
2015,12,20,08,54,26.00
2015,12,20,08,55,27.50
2015,12,20,08,56,29.60
2015,12,20,08,57,31.80
2015,12,20,08,58,32.00
2015,12,20,08,59,32.00
2015,12,20,09,00,32.00
2015,12,20,09,01,32.00
2015,12,20,09,02,31.50
2015,12,20,09,03,29.40
2015,12,20,09,04,28.00
2015,12,20,09,05,27.10
2015,12,20,09,06,25.50
2015,12,20,09,07,25.00
2015,12,20,09,08,25.00
2015,12,20,09,09,23.60
2015,12,20,09,10,24.50
2015,12,20,09,11,23.40
2015,12,20,09,12,23.00
2015,12,20,09,13,23.00
2015,12,20,09,14,23.00
2015,12,20,09,15,23.00
2015,12,20,09,16,23.30
2015,12,20,09,17,25.00
2015,12,20,09,18,25.40
2015,12,20,09,19,26.70
2015,12,20,09,20,28.90
2015,12,20,09,21,31.50
2015,12,20,09,22,35.20
2015,12,20,09,23,38.80
2015,12,20,09,24,42.80
2015,12,20,09,25,47.80
2015,12,20,09,26,54.90
2015,12,20,09,27,61.10
2015,12,20,09,28,63.00
2015,12,20,09,29,67.10
2015,12,20,09,30,69.20
2015,12,20,09,31,70.40
2015,12,20,09,32,72.00
2015,12,20,09,33,73.20
2015,12,20,09,34,75.20
2015,12,20,09,35,73.10
2015,12,20,09,36,71.10
2015,12,20,09,37,72.20
2015,12,20,09,38,72.80
2015,12,20,09,39,70.60
2015,12,20,09,40,69.30
2015,12,20,09,41,65.80
2015,12,20,09,42,62.30
2015,12,20,09,43,58.20
2015,12,20,09,44,60.20
2015,12,20,09,45,65.00
2015,12,20,09,46,76.20
2015,12,20,09,47,72.00
2015,12,20,09,48,78.30
2015,12,20,09,49,83.40
2015,12,20,09,50,71.10
2015,12,20,09,51,70.00
2015,12,20,09,52,69.40
2015,12,20,09,53,67.80
2015,12,20,09,54,65.60
2015,12,20,09,55,62.80
2015,12,20,09,56,60.40
2015,12,20,09,57,58.20
2015,12,20,09,58,56.10
2015,12,20,09,59,54.00
2015,12,20,10,00,52.70
2015,12,20,10,01,50.60
2015,12,20,10,02,49.00
2015,12,20,10,03,49.00
2015,12,20,10,04,49.00
2015,12,20,10,05,49.90
2015,12,20,10,06,52.00
2015,12,20,10,07,53.00
2015,12,20,10,08,53.60
2015,12,20,10,09,54.00
2015,12,20,10,10,54.00
2015,12,20,10,11,54.00
2015,12,20,10,12,54.00
2015,12,20,10,13,53.00
2015,12,20,10,14,51.00
2015,12,20,10,15,50.70
2015,12,20,10,16,48.60
2015,12,20,10,17,46.80
2015,12,20,10,18,46.00
2015,12,20,10,19,45.20
2015,12,20,10,20,44.00
2015,12,20,10,21,43.00
2015,12,20,10,22,42.00
2015,12,20,10,23,42.00
2015,12,20,10,24,42.00
2015,12,20,10,25,40.50
2015,12,20,10,26,40.00
2015,12,20,10,27,39.20
2015,12,20,10,28,39.00
2015,12,20,10,29,36.90
2015,12,20,10,30,34.80
2015,12,20,10,31,33.00
2015,12,20,10,32,33.00
2015,12,20,10,33,32.70
2015,12,20,10,34,32.00
2015,12,20,10,35,32.00
2015,12,20,10,36,32.00
2015,12,20,10,37,32.00
2015,12,20,10,38,32.00
2015,12,20,10,39,32.70
2015,12,20,10,40,34.50
2015,12,20,10,41,36.60
2015,12,20,10,42,38.70
2015,12,20,10,43,40.00
2015,12,20,10,44,42.20
2015,12,20,10,45,46.50
2015,12,20,10,46,49.30
2015,12,20,10,47,51.50
2015,12,20,10,48,53.30
2015,12,20,10,49,54.00
2015,12,20,10,50,54.00
2015,12,20,10,51,54.00
2015,12,20,10,52,54.00
2015,12,20,10,53,54.00
2015,12,20,10,54,54.00
2015,12,20,10,55,54.00
2015,12,20,10,56,55.70
2015,12,20,10,57,56.00
2015,12,20,10,58,59.80
2015,12,20,10,59,62.00
2015,12,20,11,00,63.60
2015,12,20,11,01,67.50
2015,12,20,11,02,71.00
2015,12,20,11,03,74.90
2015,12,20,11,04,79.40
2015,12,20,11,05,84.30
2015,12,20,11,06,88.50
2015,12,20,11,07,93.30
2015,12,20,11,08,96.80
2015,12,20,11,09,100.80
2015,12,20,11,10,103.50
2015,12,20,11,11,104.80
2015,12,20,11,12,106.70
2015,12,20,11,13,108.90
2015,12,20,11,14,111.20
2015,12,20,11,15,114.30
2015,12,20,11,16,116.40
2015,12,20,11,17,118.50
2015,12,20,11,18,120.30
2015,12,20,11,19,122.50
2015,12,20,11,20,126.30
2015,12,20,11,21,125.50
2015,12,20,11,22,123.00
2015,12,20,11,23,127.20
2015,12,20,11,24,132.60
2015,12,20,11,25,122.00
2015,12,20,11,26,114.00
2015,12,20,11,27,109.40
2015,12,20,11,28,107.10
2015,12,20,11,29,106.80
2015,12,20,11,30,104.50
2015,12,20,11,31,99.00
2015,12,20,11,32,94.00
2015,12,20,11,33,89.90
2015,12,20,11,34,86.00
2015,12,20,11,35,82.10
2015,12,20,11,36,81.00
2015,12,20,11,37,79.90
2015,12,20,11,38,77.80
2015,12,20,11,39,74.90
2015,12,20,11,40,72.50
2015,12,20,11,41,70.40
2015,12,20,11,42,73.40
2015,12,20,11,43,85.40
2015,12,20,11,44,98.20
2015,12,20,11,45,102.80
2015,12,20,11,46,106.60
2015,12,20,11,47,103.00
2015,12,20,11,48,97.30
2015,12,20,11,49,103.20
2015,12,20,11,50,124.50
2015,12,20,11,51,147.60
2015,12,20,11,52,155.00
2015,12,20,11,53,162.20
2015,12,20,11,54,169.80
2015,12,20,11,55,173.20
2015,12,20,11,56,192.40
2015,12,20,11,57,190.70
2015,12,20,11,58,181.40
2015,12,20,11,59,195.70
2015,12,20,12,00,205.20
2015,12,20,12,01,233.70
2015,12,20,12,02,242.80
2015,12,20,12,03,249.60
2015,12,20,12,04,254.40
2015,12,20,12,05,257.50
2015,12,20,12,06,259.10
2015,12,20,12,07,261.10
2015,12,20,12,08,262.00
2015,12,20,12,09,254.50
2015,12,20,12,10,241.20
2015,12,20,12,11,227.40
2015,12,20,12,12,216.90
2015,12,20,12,13,213.10
2015,12,20,12,14,206.40
2015,12,20,12,15,194.80
2015,12,20,12,16,192.00
2015,12,20,12,17,186.80
2015,12,20,12,18,180.90
2015,12,20,12,19,175.20
2015,12,20,12,20,169.90
2015,12,20,12,21,163.60
2015,12,20,12,22,160.90
2015,12,20,12,23,153.40
2015,12,20,12,24,149.00
2015,12,20,12,25,144.10
2015,12,20,12,26,141.20
2015,12,20,12,27,137.60
2015,12,20,12,28,135.10
2015,12,20,12,29,131.90
2015,12,20,12,30,129.80
2015,12,20,12,31,127.80
2015,12,20,12,32,126.50
2015,12,20,12,33,124.40
2015,12,20,12,34,121.90
2015,12,20,12,35,123.60
2015,12,20,12,36,134.50
2015,12,20,12,37,144.90
2015,12,20,12,38,145.40
2015,12,20,12,39,139.20
2015,12,20,12,40,135.60
2015,12,20,12,41,132.50
2015,12,20,12,42,132.00
2015,12,20,12,43,132.00
2015,12,20,12,44,132.10
2015,12,20,12,45,135.70
2015,12,20,12,46,143.30
2015,12,20,12,47,151.20
2015,12,20,12,48,161.50
2015,12,20,12,49,171.40
2015,12,20,12,50,178.00
2015,12,20,12,51,184.50
2015,12,20,12,52,192.90
2015,12,20,12,53,202.40
2015,12,20,12,54,211.50
2015,12,20,12,55,218.50
2015,12,20,12,56,216.80
2015,12,20,12,57,204.10
2015,12,20,12,58,185.90
2015,12,20,12,59,174.00
2015,12,20,13,00,174.00
2015,12,20,13,01,174.80
2015,12,20,13,02,184.80
2015,12,20,13,03,210.40
2015,12,20,13,04,242.00
2015,12,20,13,05,270.40
2015,12,20,13,06,284.90
2015,12,20,13,07,282.40
2015,12,20,13,08,272.70
2015,12,20,13,09,259.90
2015,12,20,13,10,241.50
2015,12,20,13,11,225.80
2015,12,20,13,12,211.10
2015,12,20,13,13,200.90
2015,12,20,13,14,189.60
2015,12,20,13,15,182.30
2015,12,20,13,16,174.60
2015,12,20,13,17,167.20
2015,12,20,13,18,159.30
2015,12,20,13,19,149.70
2015,12,20,13,20,140.40
2015,12,20,13,21,131.20
2015,12,20,13,22,119.60
2015,12,20,13,23,109.60
2015,12,20,13,24,103.80
2015,12,20,13,25,95.70
2015,12,20,13,26,87.40
2015,12,20,13,27,80.10
2015,12,20,13,28,74.30
2015,12,20,13,29,67.10
2015,12,20,13,30,61.10
2015,12,20,13,31,55.50
2015,12,20,13,32,52.00
2015,12,20,13,33,48.40
2015,12,20,13,34,45.90
2015,12,20,13,35,43.20
2015,12,20,13,36,41.00
2015,12,20,13,37,41.10
2015,12,20,13,38,42.00
2015,12,20,13,39,42.00
2015,12,20,13,40,43.50
2015,12,20,13,41,45.70
2015,12,20,13,42,46.80
2015,12,20,13,43,48.90
2015,12,20,13,44,53.00
2015,12,20,13,45,56.60
2015,12,20,13,46,62.60
2015,12,20,13,47,66.00
2015,12,20,13,48,69.90
2015,12,20,13,49,73.80
2015,12,20,13,50,78.60
2015,12,20,13,51,82.50
2015,12,20,13,52,87.50
2015,12,20,13,53,90.60
2015,12,20,13,54,93.70
2015,12,20,13,55,96.50
2015,12,20,13,56,97.00
2015,12,20,13,57,97.00
2015,12,20,13,58,97.00
2015,12,20,13,59,97.90
2015,12,20,14,00,97.90
2015,12,20,14,01,96.70
2015,12,20,14,02,94.60
2015,12,20,14,03,92.10
2015,12,20,14,04,88.60
2015,12,20,14,05,84.80
2015,12,20,14,06,81.00
2015,12,20,14,07,77.40
2015,12,20,14,08,73.60
2015,12,20,14,09,69.90
2015,12,20,14,10,67.60
2015,12,20,14,11,65.40
2015,12,20,14,12,65.00
2015,12,20,14,13,63.20
2015,12,20,14,14,62.00
2015,12,20,14,15,59.80
2015,12,20,14,16,57.60
2015,12,20,14,17,55.60
2015,12,20,14,18,53.10
2015,12,20,14,19,50.30
2015,12,20,14,20,48.20
2015,12,20,14,21,45.50
2015,12,20,14,22,42.90
2015,12,20,14,23,40.80
2015,12,20,14,24,39.30
2015,12,20,14,25,37.50
2015,12,20,14,26,35.40
2015,12,20,14,27,33.30
2015,12,20,14,28,32.10
2015,12,20,14,29,30.00
2015,12,20,14,30,28.00
2015,12,20,14,31,27.70
2015,12,20,14,32,26.00
2015,12,20,14,33,25.70
2015,12,20,14,34,25.40
2015,12,20,14,35,26.90
2015,12,20,14,36,29.90
2015,12,20,14,37,33.70
2015,12,20,14,38,39.20
2015,12,20,14,39,46.80
2015,12,20,14,40,55.80
2015,12,20,14,41,65.20
2015,12,20,14,42,74.70
2015,12,20,14,43,78.80
2015,12,20,14,44,82.80
2015,12,20,14,45,84.20
2015,12,20,14,46,85.70
2015,12,20,14,47,83.00
2015,12,20,14,48,76.00
2015,12,20,14,49,67.10
2015,12,20,14,50,58.40
2015,12,20,14,51,50.30
2015,12,20,14,52,47.00
2015,12,20,14,53,49.40
2015,12,20,14,54,52.30
2015,12,20,14,55,55.10
2015,12,20,14,56,57.60
2015,12,20,14,57,58.00
2015,12,20,14,58,58.00
2015,12,20,14,59,58.00
2015,12,20,15,00,57.80
2015,12,20,15,01,56.00
2015,12,20,15,02,55.50
2015,12,20,15,03,53.70
2015,12,20,15,04,53.00
2015,12,20,15,05,52.10
2015,12,20,15,06,50.00
2015,12,20,15,07,47.40
2015,12,20,15,08,44.80
2015,12,20,15,09,41.40
2015,12,20,15,10,37.80
2015,12,20,15,11,35.40
2015,12,20,15,12,32.50
2015,12,20,15,13,30.20
2015,12,20,15,14,26.10
2015,12,20,15,15,24.80
2015,12,20,15,16,23.00
2015,12,20,15,17,22.50
2015,12,20,15,18,20.40
2015,12,20,15,19,18.60
2015,12,20,15,20,17.10
2015,12,20,15,21,15.10
2015,12,20,15,22,14.00
2015,12,20,15,23,12.80
2015,12,20,15,24,11.40
2015,12,20,15,25,11.00
2015,12,20,15,26,9.40
2015,12,20,15,27,9.00
2015,12,20,15,28,7.20
2015,12,20,15,29,7.00
2015,12,20,15,30,6.80
2015,12,20,15,31,4.20
2015,12,20,15,32,0.00
2015,12,20,15,33,0.00
2015,12,20,15,34,0.00
2015,12,20,15,35,0.00
2015,12,20,15,36,0.00
2015,12,20,15,37,0.00
2015,12,20,15,38,3.00
2015,12,20,15,39,6.30
2015,12,20,15,40,8.50
2015,12,20,15,41,9.00
2015,12,20,15,42,9.00
2015,12,20,15,43,10.90
2015,12,20,15,44,11.00
2015,12,20,15,45,11.10
2015,12,20,15,46,12.00
2015,12,20,15,47,12.00
2015,12,20,15,48,12.00
2015,12,20,15,49,12.70
2015,12,20,15,50,14.00
2015,12,20,15,51,15.00
2015,12,20,15,52,16.00
2015,12,20,15,53,17.20
2015,12,20,15,54,18.00
2015,12,20,15,55,18.00
2015,12,20,15,56,18.80
2015,12,20,15,57,19.00
2015,12,20,15,58,19.00
2015,12,20,15,59,18.00
2015,12,20,16,00,15.80
2015,12,20,16,01,14.00
2015,12,20,16,02,13.60
2015,12,20,16,03,12.00
2015,12,20,16,04,11.60
2015,12,20,16,05,11.00
2015,12,20,16,06,11.00
2015,12,20,16,07,11.00
2015,12,20,16,08,11.00
2015,12,20,16,09,11.00
2015,12,20,16,10,11.00
2015,12,20,16,11,11.00
2015,12,20,16,12,9.30
2015,12,20,16,13,9.00
2015,12,20,16,14,8.90
2015,12,20,16,15,7.00
2015,12,20,16,16,6.60
2015,12,20,16,17,5.00
2015,12,20,16,18,3.50
2015,12,20,16,19,0.00
2015,12,20,16,20,0.00
2015,12,20,16,21,0.00
2015,12,20,16,22,0.00
2015,12,20,16,23,0.00
2015,12,20,16,24,0.00
2015,12,20,16,25,0.00
2015,12,20,16,26,0.00
2015,12,20,16,27,0.00
2015,12,20,16,28,0.00
2015,12,20,16,29,0.00
2015,12,20,16,30,0.00
2015,12,20,16,31,0.00
2015,12,20,16,32,0.00
2015,12,20,16,33,0.00
2015,12,20,16,34,0.00
2015,12,20,16,35,0.00
2015,12,20,16,36,0.00
2015,12,20,16,37,0.00
2015,12,20,16,38,0.00
2015,12,20,16,39,0.00
2015,12,20,16,40,0.00
2015,12,20,16,41,0.00
2015,12,20,16,42,0.00
2015,12,20,16,43,0.00
2015,12,20,16,44,0.00
2015,12,20,16,45,0.00
2015,12,20,16,46,0.00
2015,12,20,16,47,0.00
2015,12,20,16,48,0.00
2015,12,20,16,49,0.00
2015,12,20,16,50,0.00
2015,12,20,16,51,0.00
2015,12,20,16,52,0.00
2015,12,20,16,53,0.00
2015,12,20,16,54,0.00
2015,12,20,16,55,0.00
2015,12,20,16,56,0.00
2015,12,20,16,57,0.00
2015,12,20,16,58,0.00
2015,12,20,16,59,0.00
2015,12,20,17,00,0.00
2015,12,20,17,01,0.00
2015,12,20,17,02,0.00
2015,12,20,17,03,0.00
2015,12,20,17,04,0.00
2015,12,20,17,05,0.00
2015,12,20,17,06,0.00
2015,12,20,17,07,0.00
2015,12,20,17,08,0.00
2015,12,20,17,09,0.00
2015,12,20,17,10,0.00
2015,12,20,17,11,0.00
2015,12,20,17,12,0.00
2015,12,20,17,13,0.00
2015,12,20,17,14,0.00
2015,12,20,17,15,0.00
2015,12,20,17,16,0.00
2015,12,20,17,17,0.00
2015,12,20,17,18,0.00
2015,12,20,17,19,0.00
2015,12,20,17,20,0.00
2015,12,20,17,21,0.00
2015,12,20,17,22,0.00
2015,12,20,17,23,0.00
2015,12,20,17,24,0.00
2015,12,20,17,25,0.00
2015,12,20,17,26,0.00
2015,12,20,17,27,0.00
2015,12,20,17,28,0.00
2015,12,20,17,29,0.00
2015,12,20,17,30,0.00
2015,12,20,17,31,0.00
2015,12,20,17,32,0.00
2015,12,20,17,33,0.00
2015,12,20,17,34,0.00
2015,12,20,17,35,0.00
2015,12,20,17,36,0.00
2015,12,20,17,37,0.00
2015,12,20,17,38,0.00
2015,12,20,17,39,0.00
2015,12,20,17,40,0.00
2015,12,20,17,41,0.00
2015,12,20,17,42,0.00
2015,12,20,17,43,0.00